Location: Helsinki
(60.1699°N, 24.9384°E)
Time: 14:08:36
(UTC+02:00)

Tiros 1 - Pass Details

Date: 10 October 2022
Orbit: 629 x 662 km, 48.4° (Epoch: 07 December)

Event Time Altitude Azimuth Distance (km) Brightness Sun altitude
Rises 21:49:44 0° 197° (SSW) 2,984 - -25.2°
Maximum altitude 21:55:02 10° 148° (SSE) 2,081 - -25.7°
Drops below altitude 10° 21:55:23 10° 144° (SE) 2,086 - -25.7°
Sets 22:00:20 0° 100° (E) 2,994 - -26.2°
